This is the latest recevied weather packets stored in our database for station/object NK7I. If no packets are shown the sender has not sent any weather packets the latest 10 day(s).
| Time | Temp. | Humidity | Pressure | Rain* | Wind** | Luminosity | Snow |
|---|---|---|---|---|---|---|---|
| 1777649182 | 9.44° C | 74% | 1019.6 hPa | 0 mm | - | 473 W/m² | - |
| 1777648882 | 9.44° C | 75% | 1019.6 hPa | 0 mm | - | 496 W/m² | - |
| 1777648583 | 8.89° C | 76% | 1019.7 hPa | 0 mm | - | 543 W/m² | - |
| 1777648282 | 8.33° C | 77% | 1019.7 hPa | 0 mm | - | 584 W/m² | - |
| 1777647982 | 8.33° C | 78% | 1019.8 hPa | 0 mm | - | 534 W/m² | - |
| 1777647682 | 7.78° C | 77% | 1019.7 hPa | 0 mm | - | 455 W/m² | - |
| 1777647382 | 7.22° C | 79% | 1019.7 hPa | 0 mm | - | 378 W/m² | - |
| 1777647082 | 7.22° C | 81% | 1019.8 hPa | 0 mm | - | 406 W/m² | - |
| 1777646482 | 6.67° C | 82% | 1019.9 hPa | 0 mm | - | 301 W/m² | - |
| 1777646182 | 6.11° C | 83% | 1019.9 hPa | 0 mm | - | 107 W/m² | - |
| 1777645882 | 6.11° C | 83% | 1019.8 hPa | 0 mm | - | 105 W/m² | - |
| 1777645582 | 6.11° C | 84% | 1019.9 hPa | 0 mm | - | 109 W/m² | - |
| 1777645282 | 5.56° C | 83% | 1019.8 hPa | 0 mm | - | 135 W/m² | - |
| 1777644982 | 5.56° C | 83% | 1019.8 hPa | 0 mm | - | 111 W/m² | - |
| 1777644683 | 5.56° C | 84% | 1019.6 hPa | 0 mm | - | 76 W/m² | - |
| 1777644382 | 5° C | 86% | 1019.7 hPa | 0 mm | - | 62 W/m² | - |
| 1777644083 | 5° C | 87% | 1019.7 hPa | 0 mm | - | 54 W/m² | - |
| 1777643782 | 4.44° C | 88% | 1019.7 hPa | 0 mm | - | 49 W/m² | - |
| 1777643182 | 4.44° C | 89% | 1019.6 hPa | 0 mm | - | 42 W/m² | - |
| 1777642882 | 3.89° C | 89% | 1019.5 hPa | 0 mm | - | 40 W/m² | - |
| 1777642582 | 3.89° C | 89% | 1019.5 hPa | 0 mm | - | 40 W/m² | - |
| 1777642282 | 3.89° C | 90% | 1019.4 hPa | 0 mm | - | 39 W/m² | - |
| 1777641982 | 3.89° C | 89% | 1019.4 hPa | 0 mm | - | 35 W/m² | - |
| 1777641682 | 3.33° C | 89% | 1019.3 hPa | 0 mm | - | 35 W/m² | - |
| 1777641382 | 3.33° C | 88% | 1019.2 hPa | 0 mm | - | 33 W/m² | - |
* Rain latest hour (hover to see other rain measurements)
** Current wind speed in m/s (hover to see current wind gust speed)